Location: Cerda�ola
(41.4919°N, 2.1403°E)
Time: 05:49:28
(UTC+00:00)

Lacrosse 4 Rocket - Pass Details

Date: 13 August 2020
Orbit: 544 x 615 km, 68.0° (Epoch: 21 September)

Event Time Altitude Azimuth Distance (km) Brightness Sun altitude
Exits shadow 23:06:10 22° 343° (NNW) 1,287 3.8 -33.0°
Drops below altitude 10° 23:08:12 10° 6° (N) 1,872 4.8 -33.1°
Sets 23:10:39 0° 19° (NNE) 2,760 5.7 -33.2°
